Location: Bourg
(43.0914°N, 0.2604°E)
Time: 03:00:14
(UTC+00:00)

Daily predictions for brighter satellites

Satellite Brightness Start Highest point End
(mag) Time Altitude Azimuth Time Altitude Azimuth Time Altitude Azimuth
ATLAS 2AS CENTAUR R/B 4.1 02:22:31 34° N 02:22:31 34° N 02:26:50 10° NNE
Cosmos 1697 Rocket 4.3 02:50:39 29° E 02:50:39 29° E 02:54:01 10° ESE
COSMOS 2406 4.3 03:01:40 41° E 03:01:40 41° E 03:06:13 10° NE
Lacrosse 5 4.2 03:07:24 16° N 03:07:24 16° N 03:09:50 10° NE
Cosmos 2082 Rocket 3.2 03:27:07 35° SE 03:28:41 43° ESE 03:34:05 10° NE
ATLAS CENTAUR R/B 3.5 03:36:07 21° ESE 03:36:28 21° ESE 03:39:37 10° ENE
PAYLOAD A 4.2 03:33:18 10° NNE 03:37:54 69° ENE 03:37:54 69° ENE
Cosmos 1570 Rocket 4.3 03:42:27 62° N 03:42:27 62° N 03:46:54 10° NNE
SL-4 R/B 3.7 03:45:18 29° NNE 03:45:18 29° NNE 03:47:59 10° NE
GP-B 3.9 03:44:05 28° SE 03:46:08 50° E 03:50:26 10° N
IRIDIUM 103 4.4 03:46:07 54° SSE 03:47:16 75° E 03:52:30 10° N
ARIANE 5 R/B 3.3 03:42:28 10° N 03:45:41 39° N 03:45:41 39° N
USA 234 3.1 03:42:07 10° NE 03:48:42 88° NW 03:50:07 59° SW
ATLAS 5 CENTAUR R/B 2.4 03:54:03 59° SW 03:54:03 59° SW 04:00:12 10° SSE
Meteor 1-12 Rocket 4.3 03:49:59 10° NNW 03:59:17 22° S 04:01:13 10° S
Cosmos 1833 Rocket 2.9 03:57:03 53° NW 03:57:03 53° NW 04:02:02 10° NNE
H-2A ROCKET BODY 4.2 03:57:11 30° SW 03:58:06 30° SSW 04:03:03 10° SE
Cosmos 2369 3.7 03:53:08 13° NNW 03:58:23 82° ENE 04:04:07 10° SSE
Nadezhda 1 Rocket 3.8 03:57:23 30° S 04:00:36 84° W 04:06:43 10° N
Lacrosse 5 rocket 3.3 04:01:19 20° SSE 04:03:00 26° SE 04:06:37 10° ENE
CZ-4B R/B 3.4 03:58:45 10° N 04:04:03 72° WNW 04:04:42 64° WSW
DELTA 2 R/B (1) 3.8 04:03:59 49° SSW 04:04:09 49° SSW 04:09:28 10° ESE
CZ-2C R/B 3.2 04:00:30 10° NNE 04:03:37 56° NE 04:03:37 56° NE
IRIDIUM 106 4.1 04:04:19 52° SSW 04:05:33 76° W 04:10:48 10° N
Meteor 1-13 Rocket 4.4 04:06:53 49° WNW 04:06:53 49° WNW 04:11:55 10° N
BREEZE-M DEB (TANK) 3.5 04:07:19 28° E 04:07:19 28° E 04:08:54 10° ENE
ALOS 2.1 04:03:06 10° N 04:07:48 83° WNW 04:08:33 62° SSW
Cosmos 1610 Rocket 4.3 04:01:44 10° N 04:07:56 79° W 04:14:13 10° S
METEOR-M 4.3 04:05:01 10° NNE 04:10:22 70° ESE 04:15:40 10° S
CZ-2C R/B 2.4 04:05:46 10° N 04:10:22 57° WNW 04:10:22 57° WNW
Cosmos 1726 3.4 04:08:05 10° N 04:11:34 40° ENE 04:15:03 10° SSE
Cosmos 1484 Rocket 3.2 04:07:59 10° NNE 04:11:43 58° E 04:13:32 28° S
Cosmos 2360 4.2 04:10:07 43° NW 04:11:44 60° WSW 04:17:19 10° S
ATLAS 2AS CENTAUR R/B 4.4 04:09:58 18° NW 04:12:08 20° NNW 04:17:30 10° NNE
Cosmos 1980 Rocket 2.2 04:08:21 10° NNW 04:14:06 84° ENE 04:19:48 10° SSE
Cosmos 2184 Rocket 4.2 04:09:40 10° NNW 04:15:30 45° W 04:21:20 10° SSW
Cosmos 2341 Rocket 4.4 04:09:45 10° N 04:16:03 64° E 04:22:15 10° SSE
Meteor 1-22 Rocket 4.5 04:11:18 10° N 04:17:21 74° ENE 04:23:09 10° SSE
Meteor 1-23 Rocket 4.1 04:15:58 21° SSW 04:19:50 70° W 04:25:33 10° N
Cosmos 2298 Rocket 3.9 04:17:08 10° NNW 04:22:27 81° WSW 04:27:44 10° SSE
FALCON 9 DEB 3.8 04:22:36 44° NE 04:22:36 44° NE 04:25:24 10° ESE
FALCON 9 DEB 3.2 04:25:45 59° E 04:25:45 59° E 04:28:21 10° ESE
Cosmos 2151 Rocket 4.1 04:22:00 10° N 04:26:21 60° E 04:30:42 10° SSE
COSMOS 2455 3.7 04:23:38 10° S 04:29:24 50° ESE 04:35:12 10° NE
FENGYUN 3A 3.8 04:24:19 10° N 04:29:34 51° WNW 04:32:06 29° SW
FALCON 9 DEB 3.4 04:30:52 46° N 04:31:11 49° NNE 04:34:08 10° ESE
FALCON 9 DEB 3.5 04:31:28 45° NNW 04:32:11 58° NNE 04:35:31 10° ESE
Cosmos 1697 Rocket 3.1 04:32:35 35° W 04:32:48 35° WSW 04:37:51 10° S
Sich 1 Rocket 3.4 04:28:57 10° NNW 04:33:19 66° W 04:37:41 10° S
Cosmos 1674 Rocket 4.2 04:29:29 10° S 04:33:44 56° E 04:37:59 10° NNE
GEOS 3 Rocket 3.7 04:29:35 10° NE 04:34:45 77° SE 04:39:12 14° SSW
BREEZE M DEB (TANK) 3.4 04:30:27 21° WNW 04:35:31 86° NNE 04:38:40 10° ESE
Cosmos 1300 Rocket 3.6 04:33:23 10° NNW 04:37:37 53° W 04:41:51 10° S
Cosmos 2154 Rocket 4.2 04:33:16 10° NNW 04:39:03 43° W 04:44:50 10° SSW
Cosmos 2278 3.6 04:36:40 10° NNW 04:42:24 79° WSW 04:48:06 10° SSE
Cosmos 1125 Rocket 3.4 04:39:15 10° NNW 04:44:24 62° WSW 04:49:30 10° S
COSMOS 2406 4.1 04:43:46 27° W 04:45:13 30° NW 04:50:17 10° N
Lacrosse 5 3.7 04:47:00 10° NNW 04:51:09 24° NNE 04:55:16 10° ENE
Cosmos 1461 3.4 04:51:21 29° W 04:52:57 41° NW 04:56:59 10° NNE
Meteor 2-10 4.1 04:48:51 10° NNW 04:53:39 46° W 04:58:31 10° SSW
Cosmos 1340 2.6 04:50:18 10° SSW 04:54:00 58° WNW 04:57:44 10° N
PSLV R/B 3.8 04:51:39 10° N 04:55:50 45° WNW 05:00:00 10° SW
NOSS 3-1 (C) 4.1 04:48:42 10° NW 04:56:18 65° WSW 05:05:03 10° SSE
Cosmos 921 Rocket 4.4 04:56:40 20° WNW 04:56:40 20° WNW 04:59:41 10° NNW
Cosmos 2366 rocket 4.1 04:51:28 10° N 04:57:49 87° E 05:04:11 10° S
Cosmos 1959 Rocket 4.5 04:53:43 10° N 04:59:51 89° ENE 05:05:58 10° S
SL-16 R/B 2.9 04:54:23 10° NNW 04:59:59 56° ENE 05:05:32 10° SE
Cosmos 864 Rocket 4.5 04:56:16 10° N 05:02:28 89° WSW 05:08:41 10° S
In-Cosmos 22 4.3 04:58:42 10° S 05:03:58 73° E 05:09:15 10° NNE
Cosmos 371 Rocket 4.4 05:01:10 10° N 05:05:54 48° ENE 05:10:37 10° SE
Cosmos 1842 4.1 05:03:50 15° SW 05:06:24 29° WNW 05:09:53 10° NNW
Cosmos 2181 Rocket 3.9 05:00:43 10° SSW 05:06:50 72° W 05:13:02 10° N
Meteor 1-21 4.2 05:01:49 10° SSW 05:07:31 75° W 05:13:11 10° N
Meteor 1-31 Rocket 3.0 05:06:47 10° NNE 05:10:36 73° ESE 05:14:22 10° S
Cosmos 1626 3.9 05:08:36 10° SSE 05:11:59 36° E 05:15:24 10° NNE
Cosmos 2082 Rocket 3.0 05:09:02 15° WSW 05:12:54 31° NW 05:17:58 10° N
ATLAS CENTAUR R/B 1.9 05:12:18 16° WSW 05:15:03 38° NW 05:19:03 10° NNE
Cosmos 2322 Rocket 2.9 05:12:48 10° NNW 05:18:24 59° ENE 05:23:58 10° SE
Cosmos 389 Rocket 2.4 05:14:57 10° N 05:18:26 85° W 05:21:57 10° S
Cosmos 1707 3.0 05:17:45 10° SSW 05:21:28 44° WNW 05:25:14 10° N
COSMO-SKYMED 1 2.5 05:18:45 10° S 05:23:05 74° WSW 05:27:27 10° NNW
SL-4 R/B 3.6 05:20:52 10° NW 05:24:30 25° N 05:27:55 10° ENE
Okean 2 Rocket 4.1 05:21:12 10° NNW 05:24:57 26° W 05:28:42 10° SW
Okean 2 4.0 05:24:09 10° SW 05:27:53 35° WNW 05:31:39 10° N
FALCON 9 DEB 3.9 05:26:29 14° W 05:28:30 28° SW 05:31:07 10° SSE
Cosmos 1908 3.6 05:24:45 10° N 05:28:35 68° E 05:32:21 10° SSE
USA 234 4.0 05:25:23 10° NE 05:31:15 37° NNW 05:37:07 10° W
Cosmos 405 4.4 05:30:40 10° NW 05:32:58 17° W 05:35:15 10° SW
CZ-4B R/B 4.3 05:31:50 10° ESE 05:33:51 17° ENE 05:35:55 10° NNE
Cosmos 2360 Rocket 3.3 05:28:37 10° NNW 05:34:07 48° ENE 05:39:35 10° SE
YAOGAN 6 2.8 05:32:22 10° N 05:35:43 42° WNW 05:39:03 10° SW
Cosmos 2219 Rocket 4.5 05:31:39 10° N 05:36:04 23° NE 05:40:28 10° ESE
SJ-12 4.2 05:33:04 10° N 05:36:55 43° WNW 05:40:45 10° SW
ATLAS 5 CENTAUR R/B 4.2 05:36:45 10° W 05:37:34 10° WSW 05:38:23 10° WSW
Cosmos 1378 Rocket 4.2 05:34:02 10° SW 05:38:00 33° WNW 05:42:00 10° N
Cosmos 2218 Rocket 4.3 05:32:46 10° NNW 05:38:49 45° W 05:44:50 10° SSW
CZ-2C R/B 2.7 05:34:01 10° S 05:39:24 70° WSW 05:44:57 10° NNW
Cosmos 1455 Rocket 3.8 05:36:40 10° N 05:41:06 60° E 05:45:29 10° SSE
Cosmos 1470 4.0 05:38:37 10° NW 05:41:30 20° W 05:44:22 10° SW
Lacrosse 5 rocket 1.8 05:37:49 10° WSW 05:41:55 47° NW 05:46:14 10° NE
ALOS 4.2 05:43:57 10° NW 05:44:24 10° WNW 05:44:51 10° WNW
Cosmos 1758 4.0 05:41:42 10° NNW 05:45:15 32° W 05:48:48 10° SSW
BREEZE-M DEB (TANK) 3.3 05:42:51 10° NW 05:45:32 43° NNE 05:50:45 10° ESE
Cosmos 1821 Rocket 4.0 05:39:41 10° N 05:45:59 87° W 05:52:09 10° S
Cosmos 1726 3.9 05:44:43 10° WNW 05:46:18 12° W 05:47:52 10° WSW
Cosmos 1975 Rocket 3.2 05:44:40 10° S 05:49:04 88° E 05:53:32 10° N
Cosmos 1025 Rocket 4.0 05:46:21 10° S 05:50:35 54° E 05:54:50 10° NNE
